Tracking 23726 objects as of 24-Sep-2021
HD Live streaming from Space Station
objects crossing your sky now

DELTA 1 DEB

Track DELTA 1 DEB now!
10-day predictions


NORAD ID: 13574
Int'l Code: 1978-026FM
Perigee: 822.7 km
Apogee: 880.8 km
Inclination: 98.8 °
Period: 101.8 minutes
Semi major axis: 7222 km
RCS: 0.0387 m2 (small)
Launch date: March 5, 1978
Source: United States (US)
Launch site: AIR FORCE WESTERN TEST RANGE (AFWTR)

Note: This is SATELLITE DEBRIS
aabbcc
Your satellite tracking list
Your tracking list is empty




NASA's NSSDC Master Catalog

Two Line Element Set (TLE):
1 13574U 78026FM  21266.64354373  .00000183  00000-0  11774-3 0  9990
2 13574  98.8372 224.9657 0040209  14.8641 160.3406 14.14335634 62094
Source of the keplerian elements: AFSPC